CZ-3A DEB, 36968

Orbit data source: Space-Track

CZ-3A DEB, 36968 is space debris in HEO originally from a launch on Fri, 02 Feb 2007 UTC launched from the Xichang Space Center, China (XSC). Debris objects in space refer to the collection of defunct objects orbiting the Earth. Examples of debris include non-operational satellites, rocket bodies, and fragments generated from explosions, collisions, or faulty payload assembly.

Loading next visibility...
Identifier
36968, 2007-003AE
Orbit
HEO
Country
Flag of CNCN / PRC
Related business
Manufacturer
Unknown
Mission
Spacecraft
Bus & Motor
Unknown
Mass
Unknown
Launch date (UTC)
2007-02-02 (19 years ago)
Launch vehicle
Unknown
Launch site
Xichang Space Center, China (XSC)
Object type
Payload
Rocket body
Debris
Shape & HBR
Unknown
Radar Cross Section
Medium (>0.1 m² and <1 m²)

Expand to show TLE details & history
Last TLE update: 1 day ago

TLE from 1 day ago
0 CZ-3A DEB
1 36968U 07003AE  25258.19357572  .00002185  00000-0  43434-2 0  9999
2 36968  25.1867 217.2825 7504278 223.0503  44.6484  1.96328396125014
Epoch: 2025-09-15T04:38Z
TLE epoch observation values (Epoch: 2025-09-15T04:38:44.942Z)
Latitude
-0.00004°
Longitude
153.12554°
Altitude
19,701.83 km
Speed
3.971 km/s
True Right ascension
14h 28m 51s
True Declination
0° 00' 00"
Sunlit
Object was in daylight at epoch
Visualization orbit readout
Latitude
Unknown
Longitude
Unknown
Altitude
Unknown
Speed
Unknown
Apparent Right ascension
Unknown
Apparent Declination
Unknown
Sunlit
N/A
Visualization observer readout
Local Sidereal Time
23:33:24
Azimuth
Unknown
Elevation
Unknown
Doppler factor
Unknown
Orbital elements
Apogee altitude
40,787.319 km
Perigee altitude
346.611 km
Semi-major axis
26,945.102 km
Eccentricity
0.75043
Inclination
25.1867°
RAAN
217.2825°
Arg. of periapsis
223.0503°
True anomaly
137.02065°
Mean anomaly
44.6484°
Eccentric anomaly
87.60726°
Mean motion
0.49071 °/min
Orbital period
733.63 mins
BSTAR
0.0043434
Loading maneuver chart data...
Computing Atmospheric mass density...
Loading historical data...
Loading historical data...
Loading historical data...
Loading historical data...
Loading historical data...
Loading historical data...
Loading historical data...

Documentation

Showing up to 5 results
|